QPF
0.01 0.02 0.02 0.02 0.02 0.02 0.02 0.01 0.01 0.01 0.02 0.03 0.03 0.03 0.03 0.02 0.02 0.03 0.05 0.05 0.04 0.04 0.04 0.04 0.04 0.04 0.05 0.05 0.06 0.06 0.07 0.07 0.06 0.05 0.04 0.03 0.02 0.02 0.02 0.01 0.01 0.01 0.00
0.01 0.02 0.01 0.01 0.02 0.02 0.01 0.01 0.01 0.01 0.01 0.02 0.02 0.02 0.01 0.01 0.01 0.02 0.02 0.03 0.03 0.02 0.02 0.03 0.03 0.03 0.03 0.03 0.03 0.04 0.04 0.04 0.03 0.03 0.02 0.02 0.02 0.01 0.01 0.01 0.00 0.00 0.00
0.01 0.01 0.02 0.01 0.01 0.01 0.01 0.01 0.01 0.01 0.01 0.01 0.01 0.01 0.01 0.01 0.01 0.01 0.01 0.01 0.01 0.01 0.01 0.01 0.02 0.02 0.02 0.01 0.01 0.02 0.02 0.01 0.01 0.01 0.01 0.01 0.01 0.01 0.01 0.01 0.00 0.00 0.00
0.01 0.01 0.02 0.02 0.02 0.01 0.01 0.01 0.01 0.01 0.01 0.01 0.01 0.01 0.00 0.00 0.00 0.00 0.00 0.00 0.00 0.00 0.00 0.00 0.01 0.01 0.01 0.01 0.00 0.00 0.00 0.00 0.00 0.00 0.00 0.01 0.01 0.01 0.01 0.01 0.01 0.01 0.00
0.01 0.01 0.03 0.03 0.02 0.02 0.02 0.01 0.01 0.01 0.01 0.01 0.01 0.01 0.01 0.01 0.01 0.00 0.00 0.00 0.00 0.00 0.00 0.00 0.00 0.00 0.00 0.00 0.00 0.00 0.00 0.00 0.00 0.01 0.01 0.01 0.01 0.01 0.01 0.00 0.00 0.00 0.00
0.01 0.02 0.02 0.03 0.02 0.02 0.02 0.01 0.01 0.01 0.01 0.01 0.01 0.01 0.01 0.01 0.00 0.00 0.00 0.00 0.00 0.00 0.00 0.00 0.00 0.00 0.00 0.00 0.00 0.00 0.00 0.00 0.00 0.01 0.00 0.01 0.01 0.01 0.01 0.00 0.01 0.01 0.01
0.02 0.02 0.02 0.03 0.02 0.01 0.01 0.01 0.02 0.02 0.02 0.01 0.01 0.01 0.00 0.00 0.00 0.00 0.01 0.01 0.00 0.00 0.00 0.00 0.00 0.00 0.00 0.00 0.00 0.00 0.00 0.00 0.00 0.00 0.01 0.01 0.01 0.01 0.01 0.01 0.01 0.01 0.01
0.03 0.03 0.02 0.02 0.02 0.02 0.02 0.02 0.02 0.02 0.02 0.01 0.01 0.01 0.01 0.00 0.00 0.00 0.00 0.00 0.00 0.00 0.00 0.00 0.00 0.00 0.00 0.00 0.00 0.00 0.00 0.00 0.00 0.00 0.00 0.01 0.00 0.00 0.01 0.01 0.01 0.01 0.01
0.03 0.03 0.02 0.02 0.02 0.03 0.03 0.02 0.02 0.02 0.02 0.01 0.01 0.01 0.01 0.00 0.00 0.00 0.00 0.00 0.00 0.00 0.00 0.00 0.00 0.00 0.00 0.00 0.00 0.00 0.00 0.00 0.00 0.00 0.00 0.00 0.00 0.00 0.00 0.01 0.01 0.02 0.03
0.03 0.03 0.02 0.02 0.01 0.02 0.01 0.01 0.01 0.01 0.01 0.00 0.01 0.01 0.00 0.00 0.00 0.00 0.00 0.00 0.00 0.00 0.00 0.00 0.00 0.00 0.00 0.00 0.00 0.01 0.01 0.00 0.00 0.00 0.01 0.01 0.01 0.00 0.00 0.01 0.02 0.02 0.02
0.02 0.02 0.02 0.02 0.01 0.01 0.01 0.01 0.01 0.01 0.01 0.01 0.01 0.01 0.00 0.00 0.00 0.00 0.00 0.00 0.00 0.00 0.00 0.00 0.00 0.00 0.00 0.00 0.00 0.01 0.00 0.00 0.00 0.00 0.01 0.01 0.01 0.01 0.01 0.01 0.01 0.02 0.02
0.03 0.03 0.02 0.02 0.01 0.02 0.02 0.01 0.01 0.01 0.01 0.01 0.01 0.01 0.00 0.00 0.00 0.00 0.00 0.00 0.00 0.00 0.00 0.00 0.00 0.00 0.00 0.00 0.00 0.00 0.00 0.00 0.00 0.00 0.01 0.01 0.01 0.01 0.00 0.00 0.00 0.01 0.02
0.03 0.03 0.02 0.02 0.02 0.02 0.02 0.02 0.02 0.02 0.01 0.01 0.00 0.00 0.00 0.00 0.00 0.00 0.00 0.00 0.00 0.00 0.00 0.00 0.00 0.00 0.00 0.00 0.00 0.00 0.00 0.01 0.01 0.01 0.01 0.01 0.00 0.00 0.00 0.00 0.00 0.00 0.00
0.04 0.04 0.03 0.02 0.02 0.02 0.02 0.02 0.01 0.01 0.01 0.01 0.00 0.00 0.00 0.00 0.00 0.00 0.00 0.00 0.00 0.00 0.00 0.00 0.00 0.00 0.00 0.00 0.00 0.00 0.00 0.00 0.01 0.01 0.00 0.00 0.00 0.00 0.00 0.00 0.01 0.00 0.01
0.04 0.03 0.02 0.01 0.01 0.01 0.01 0.01 0.01 0.01 0.01 0.01 0.00 0.00 0.00 0.00 0.00 0.00 0.00 0.00 0.00 0.00 0.00 0.00 0.00 0.00 0.00 0.00 0.00 0.00 0.00 0.00 0.00 0.00 0.00 0.00 0.00 0.00 0.00 0.00 0.00 0.00 0.01
0.03 0.02 0.01 0.01 0.01 0.01 0.01 0.00 0.00 0.00 0.00 0.00 0.00 0.00 0.00 0.00 0.00 0.00 0.00 0.00 0.00 0.00 0.00 0.00 0.00 0.00 0.00 0.00 0.00 0.00 0.00 0.00 0.00 0.00 0.00 0.00 0.00 0.00 0.00 0.00 0.00 0.00 0.01
0.02 0.01 0.00 0.00 0.00 0.00 0.01 0.01 0.00 0.00 0.00 0.00 0.00 0.00 0.00 0.00 0.00 0.00 0.00 0.00 0.00 0.00 0.00 0.00 0.00 0.00 0.00 0.00 0.00 0.00 0.00 0.00 0.00 0.00 0.00 0.00 0.00 0.00 0.00 0.00 0.00 0.00 0.00
0.01 0.00 0.00 0.00 0.00 0.00 0.00 0.00 0.00 0.00 0.00 0.00 0.00 0.00 0.00 0.00 0.00 0.00 0.00 0.00 0.00 0.00 0.00 0.00 0.00 0.00 0.00 0.00 0.00 0.00 0.00 0.00 0.00 0.00 0.00 0.00 0.00 0.00 0.00 0.00 0.00 0.01 0.01
0.00 0.00 0.00 0.00 0.00 0.00 0.00 0.00 0.00 0.00 0.00 0.00 0.00 0.00 0.00 0.00 0.00 0.00 0.00 0.00 0.00 0.00 0.00 0.00 0.00 0.00 0.00 0.00 0.00 0.00 0.00 0.00 0.00 0.00 0.00 0.00 0.00 0.00 0.00 0.00 0.00 0.00 0.00
0.00 0.00 0.00 0.00 0.00 0.00 0.00 0.00 0.00 0.00 0.00 0.00 0.00 0.00 0.00 0.00 0.00 0.00 0.00 0.00 0.00 0.00 0.00 0.00 0.00 0.00 0.00 0.00 0.00 0.00 0.00 0.00 0.00 0.00 0.00 0.00 0.00 0.00 0.00 0.00 0.00 0.01 0.01
0.00 0.00 0.00 0.00 0.00 0.00 0.00 0.00 0.00 0.00 0.00 0.00 0.00 0.00 0.00 0.00 0.00 0.00 0.00 0.00 0.00 0.00 0.00 0.00 0.00 0.00 0.00 0.00 0.00 0.00 0.00 0.00 0.00 0.00 0.00 0.00 0.00 0.00 0.00 0.00 0.00 0.00 0.00
0.00 0.00 0.00 0.00 0.00 0.00 0.00 0.00 0.00 0.00 0.00 0.00 0.00 0.00 0.00 0.00 0.00 0.00 0.00 0.00 0.00 0.00 0.00 0.00 0.00 0.00 0.00 0.00 0.00 0.00 0.00 0.00 0.00 0.00 0.00 0.00 0.00 0.00 0.00 0.00 0.00 0.00 0.00
0.00 0.00 0.00 0.00 0.00 0.00 0.00 0.00 0.00 0.00 0.00 0.00 0.00 0.00 0.00 0.00 0.00 0.00 0.00 0.00 0.00 0.00 0.00 0.00 0.00 0.00 0.00 0.00 0.00 0.00 0.00 0.00 0.00 0.00 0.00 0.00 0.00 0.00 0.00 0.00 0.00 0.00 0.00
0.00 0.00 0.00 0.00 0.00 0.00 0.00 0.00 0.00 0.00 0.00 0.00 0.00 0.00 0.00 0.00 0.00 0.00 0.00 0.00 0.00 0.00 0.00 0.00 0.00 0.00 0.00 0.00 0.00 0.00 0.00 0.00 0.00 0.00 0.00 0.00 0.00 0.00 0.00 0.00 0.00 0.00 0.00
0.00 0.00 0.00 0.00 0.00 0.00 0.00 0.00 0.00 0.00 0.00 0.00 0.00 0.00 0.00 0.00 0.00 0.00 0.00 0.00 0.00 0.00 0.00 0.00 0.00 0.00 0.00 0.00 0.00 0.00 0.00 0.00 0.00 0.00 0.00 0.00 0.00 0.00 0.00 0.00 0.00 0.00 0.00
0.00 0.00 0.00 0.00 0.00 0.00 0.00 0.00 0.00 0.00 0.00 0.00 0.00 0.00 0.00 0.00 0.00 0.00 0.00 0.00 0.00 0.00 0.00 0.00 0.00 0.00 0.00 0.00 0.00 0.00 0.00 0.00 0.00 0.00 0.00 0.00 0.00 0.00 0.00 0.00 0.00 0.00 0.00
MSLP
1021.47 1021.39 1021.28 1021.13 1020.91 1020.62 1020.27 1019.89 1019.50 1019.15 1018.85 1018.62 1018.46 1018.35 1018.27 1018.19 1018.08 1017.92 1017.70 1017.45 1017.18 1016.93 1016.74 1016.68 1016.76 1017.04 1017.53 1018.22 1019.09 1020.08 1021.13 1022.18 1023.17 1024.03 1024.72 1025.23 1025.56 1025.74 1025.82 1025.84 1025.85 1025.91 1026.03
1021.90 1021.83 1021.74 1021.59 1021.38 1021.09 1020.74 1020.36 1019.98 1019.63 1019.33 1019.10 1018.94 1018.83 1018.75 1018.68 1018.58 1018.44 1018.26 1018.03 1017.78 1017.55 1017.37 1017.30 1017.35 1017.58 1017.98 1018.56 1019.29 1020.14 1021.05 1021.97 1022.83 1023.59 1024.22 1024.69 1025.00 1025.19 1025.29 1025.33 1025.36 1025.43 1025.56
1022.24 1022.19 1022.12 1021.99 1021.80 1021.55 1021.23 1020.89 1020.54 1020.22 1019.94 1019.73 1019.57 1019.46 1019.37 1019.29 1019.19 1019.05 1018.88 1018.68 1018.47 1018.27 1018.11 1018.04 1018.09 1018.26 1018.58 1019.05 1019.64 1020.32 1021.06 1021.81 1022.52 1023.17 1023.71 1024.13 1024.43 1024.62 1024.74 1024.81 1024.87 1024.95 1025.07
1022.47 1022.44 1022.40 1022.31 1022.17 1021.98 1021.73 1021.46 1021.18 1020.92 1020.70 1020.51 1020.37 1020.25 1020.15 1020.04 1019.92 1019.77 1019.60 1019.41 1019.22 1019.06 1018.94 1018.89 1018.92 1019.06 1019.31 1019.67 1020.12 1020.63 1021.20 1021.77 1022.33 1022.85 1023.30 1023.67 1023.95 1024.16 1024.30 1024.40 1024.49 1024.57 1024.68
1022.56 1022.57 1022.57 1022.54 1022.46 1022.35 1022.20 1022.04 1021.86 1021.70 1021.55 1021.41 1021.29 1021.17 1021.04 1020.90 1020.74 1020.57 1020.38 1020.19 1020.02 1019.89 1019.81 1019.78 1019.83 1019.94 1020.14 1020.40 1020.72 1021.08 1021.48 1021.90 1022.31 1022.71 1023.07 1023.39 1023.66 1023.88 1024.05 1024.17 1024.28 1024.36 1024.45
1022.54 1022.58 1022.62 1022.65 1022.66 1022.64 1022.61 1022.57 1022.52 1022.47 1022.41 1022.34 1022.25 1022.13 1021.99 1021.81 1021.61 1021.40 1021.19 1021.00 1020.84 1020.73 1020.68 1020.69 1020.75 1020.86 1021.01 1021.20 1021.41 1021.65 1021.91 1022.19 1022.48 1022.77 1023.05 1023.33 1023.58 1023.81 1023.99 1024.14 1024.26 1024.34 1024.40
1022.44 1022.51 1022.58 1022.67 1022.75 1022.83 1022.91 1023.00 1023.08 1023.14 1023.18 1023.19 1023.14 1023.04 1022.89 1022.69 1022.45 1022.21 1021.98 1021.78 1021.63 1021.55 1021.53 1021.57 1021.65 1021.76 1021.89 1022.03 1022.17 1022.31 1022.46 1022.62 1022.80 1023.00 1023.23 1023.46 1023.69 1023.92 1024.11 1024.27 1024.39 1024.46 1024.49
1022.32 1022.40 1022.49 1022.61 1022.75 1022.91 1023.09 1023.29 1023.48 1023.65 1023.79 1023.87 1023.87 1023.80 1023.65 1023.45 1023.20 1022.94 1022.70 1022.50 1022.37 1022.32 1022.33 1022.39 1022.50 1022.62 1022.74 1022.84 1022.92 1022.99 1023.06 1023.13 1023.23 1023.36 1023.52 1023.71 1023.92 1024.13 1024.32 1024.47 1024.58 1024.63 1024.63
1022.25 1022.31 1022.41 1022.53 1022.70 1022.92 1023.16 1023.44 1023.71 1023.98 1024.19 1024.34 1024.40 1024.37 1024.24 1024.05 1023.81 1023.56 1023.33 1023.16 1023.05 1023.02 1023.06 1023.16 1023.28 1023.41 1023.52 1023.60 1023.64 1023.65 1023.65 1023.66 1023.68 1023.74 1023.85 1024.00 1024.17 1024.35 1024.52 1024.66 1024.75 1024.78 1024.75
1022.27 1022.31 1022.38 1022.49 1022.66 1022.89 1023.17 1023.49 1023.82 1024.14 1024.42 1024.62 1024.74 1024.75 1024.67 1024.51 1024.31 1024.09 1023.90 1023.75 1023.68 1023.68 1023.75 1023.86 1023.99 1024.12 1024.22 1024.27 1024.27 1024.24 1024.18 1024.13 1024.09 1024.10 1024.15 1024.24 1024.37 1024.52 1024.65 1024.76 1024.82 1024.83 1024.78
1022.41 1022.41 1022.45 1022.53 1022.68 1022.89 1023.17 1023.50 1023.85 1024.21 1024.52 1024.78 1024.94 1025.01 1024.98 1024.88 1024.73 1024.57 1024.42 1024.32 1024.28 1024.30 1024.38 1024.50 1024.62 1024.73 1024.80 1024.82 1024.78 1024.71 1024.60 1024.50 1024.41 1024.36 1024.36 1024.41 1024.48 1024.58 1024.67 1024.74 1024.78 1024.76 1024.68
1022.66 1022.63 1022.63 1022.68 1022.79 1022.97 1023.23 1023.54 1023.89 1024.26 1024.59 1024.88 1025.09 1025.21 1025.25 1025.21 1025.13 1025.02 1024.93 1024.87 1024.85 1024.89 1024.96 1025.06 1025.15 1025.22 1025.25 1025.23 1025.15 1025.03 1024.89 1024.74 1024.62 1024.53 1024.48 1024.47 1024.51 1024.56 1024.60 1024.63 1024.63 1024.58 1024.49
1023.00 1022.95 1022.92 1022.93 1023.01 1023.15 1023.38 1023.66 1024.00 1024.36 1024.70 1025.01 1025.26 1025.43 1025.53 1025.55 1025.53 1025.48 1025.43 1025.39 1025.38 1025.41 1025.46 1025.51 1025.56 1025.58 1025.55 1025.48 1025.36 1025.20 1025.03 1024.86 1024.71 1024.59 1024.51 1024.48 1024.47 1024.47 1024.48 1024.47 1024.43 1024.35 1024.24
1023.37 1023.31 1023.27 1023.25 1023.30 1023.42 1023.61 1023.88 1024.19 1024.54 1024.88 1025.20 1025.48 1025.69 1025.83 1025.90 1025.93 1025.92 1025.89 1025.86 1025.84 1025.83 1025.83 1025.83 1025.81 1025.76 1025.68 1025.56 1025.40 1025.23 1025.04 1024.86 1024.71 1024.58 1024.50 1024.44 1024.41 1024.39 1024.36 1024.31 1024.24 1024.14 1024.00
1023.71 1023.66 1023.61 1023.60 1023.63 1023.73 1023.91 1024.15 1024.45 1024.78 1025.12 1025.45 1025.73 1025.96 1026.13 1026.24 1026.29 1026.29 1026.26 1026.22 1026.16 1026.10 1026.04 1025.97 1025.88 1025.78 1025.64 1025.48 1025.31 1025.13 1024.95 1024.79 1024.65 1024.55 1024.47 1024.42 1024.38 1024.33 1024.28 1024.21 1024.10 1023.97 1023.81
1023.97 1023.93 1023.90 1023.89 1023.93 1024.03 1024.19 1024.43 1024.71 1025.03 1025.36 1025.69 1025.97 1026.21 1026.38 1026.49 1026.54 1026.54 1026.49 1026.41 1026.30 1026.19 1026.06 1025.93 1025.78 1025.63 1025.46 1025.29 1025.12 1024.96 1024.82 1024.69 1024.59 1024.52 1024.47 1024.43 1024.39 1024.34 1024.26 1024.16 1024.04 1023.88 1023.69
1024.11 1024.09 1024.08 1024.09 1024.14 1024.25 1024.41 1024.64 1024.92 1025.23 1025.55 1025.86 1026.13 1026.36 1026.52 1026.61 1026.64 1026.61 1026.53 1026.40 1026.25 1026.08 1025.91 1025.73 1025.55 1025.37 1025.20 1025.05 1024.91 1024.79 1024.69 1024.62 1024.57 1024.54 1024.51 1024.49 1024.45 1024.39 1024.29 1024.17 1024.01 1023.83 1023.62
1024.13 1024.13 1024.13 1024.16 1024.23 1024.34 1024.51 1024.74 1025.01 1025.31 1025.61 1025.90 1026.16 1026.36 1026.50 1026.56 1026.56 1026.50 1026.38 1026.22 1026.03 1025.83 1025.62 1025.43 1025.24 1025.08 1024.94 1024.82 1024.74 1024.68 1024.64 1024.63 1024.62 1024.62 1024.61 1024.59 1024.54 1024.46 1024.34 1024.19 1024.00 1023.79 1023.55
1024.05 1024.06 1024.07 1024.10 1024.18 1024.30 1024.47 1024.70 1024.96 1025.24 1025.53 1025.80 1026.03 1026.20 1026.31 1026.34 1026.31 1026.22 1026.07 1025.89 1025.69 1025.48 1025.28 1025.11 1024.96 1024.84 1024.75 1024.71 1024.69 1024.69 1024.72 1024.75 1024.77 1024.79 1024.78 1024.74 1024.66 1024.54 1024.38 1024.18 1023.96 1023.71 1023.45
1023.91 1023.91 1023.92 1023.95 1024.02 1024.14 1024.31 1024.53 1024.77 1025.04 1025.31 1025.55 1025.76 1025.90 1025.99 1026.00 1025.94 1025.83 1025.68 1025.50 1025.31 1025.13 1024.97 1024.85 1024.76 1024.72 1024.71 1024.74 1024.80 1024.87 1024.94 1024.99 1025.03 1025.03 1024.99 1024.91 1024.78 1024.60 1024.38 1024.13 1023.86 1023.58 1023.30
1023.73 1023.72 1023.71 1023.74 1023.79 1023.90 1024.06 1024.26 1024.49 1024.74 1024.99 1025.21 1025.40 1025.52 1025.59 1025.59 1025.53 1025.42 1025.28 1025.13 1024.98 1024.85 1024.76 1024.71 1024.71 1024.75 1024.83 1024.95 1025.07 1025.19 1025.29 1025.35 1025.38 1025.34 1025.25 1025.09 1024.89 1024.64 1024.35 1024.04 1023.73 1023.41 1023.11
1023.57 1023.53 1023.51 1023.51 1023.55 1023.64 1023.77 1023.96 1024.17 1024.40 1024.63 1024.83 1025.00 1025.12 1025.18 1025.18 1025.13 1025.04 1024.93 1024.82 1024.72 1024.66 1024.65 1024.69 1024.78 1024.92 1025.09 1025.27 1025.45 1025.61 1025.72 1025.78 1025.76 1025.68 1025.51 1025.28 1024.99 1024.66 1024.31 1023.94 1023.58 1023.23 1022.91
1023.43 1023.37 1023.33 1023.30 1023.32 1023.38 1023.50 1023.66 1023.85 1024.06 1024.27 1024.47 1024.63 1024.74 1024.80 1024.81 1024.78 1024.72 1024.65 1024.59 1024.56 1024.57 1024.64 1024.76 1024.94 1025.16 1025.40 1025.64 1025.86 1026.04 1026.15 1026.19 1026.13 1025.99 1025.76 1025.45 1025.09 1024.69 1024.27 1023.86 1023.46 1023.09 1022.75
1023.33 1023.26 1023.19 1023.14 1023.13 1023.17 1023.26 1023.40 1023.57 1023.76 1023.96 1024.14 1024.30 1024.41 1024.48 1024.50 1024.50 1024.47 1024.43 1024.42 1024.44 1024.52 1024.65 1024.84 1025.08 1025.36 1025.65 1025.94 1026.19 1026.38 1026.49 1026.50 1026.41 1026.22 1025.94 1025.58 1025.17 1024.72 1024.27 1023.82 1023.40 1023.01 1022.67
1023.25 1023.17 1023.08 1023.02 1022.99 1023.00 1023.07 1023.18 1023.33 1023.50 1023.69 1023.86 1024.01 1024.12 1024.20 1024.23 1024.24 1024.23 1024.23 1024.25 1024.31 1024.43 1024.60 1024.83 1025.11 1025.43 1025.75 1026.06 1026.32 1026.52 1026.63 1026.63 1026.53 1026.32 1026.02 1025.64 1025.21 1024.74 1024.28 1023.82 1023.40 1023.01 1022.66
1023.17 1023.08 1022.99 1022.92 1022.87 1022.86 1022.90 1022.99 1023.11 1023.26 1023.43 1023.59 1023.73 1023.84 1023.91 1023.95 1023.97 1023.98 1023.99 1024.02 1024.10 1024.23 1024.42 1024.66 1024.96 1025.29 1025.62 1025.94 1026.21 1026.41 1026.52 1026.53 1026.44 1026.24 1025.95 1025.58 1025.16 1024.72 1024.27 1023.83 1023.41 1023.03 1022.68
Thickness
5583 5583 5582 5582 5583 5584 5585 5585 5586 5587 5589 5591 5592 5594 5596 5597 5598 5600 5601 5602 5604 5605 5605 5605 5604 5605 5605 5604 5603 5602 5600 5599 5592 5584 5580 5575 5573 5572 5569 5568 5566 5563 5560
5573 5572 5571 5571 5572 5573 5573 5574 5575 5576 5578 5579 5581 5582 5584 5585 5586 5588 5589 5591 5592 5593 5593 5594 5594 5594 5594 5594 5593 5592 5590 5588 5584 5577 5572 5569 5565 5563 5561 5559 5559 5558 5554
5563 5562 5561 5561 5561 5561 5562 5563 5564 5565 5566 5568 5570 5571 5572 5573 5574 5575 5577 5579 5580 5580 5581 5582 5582 5583 5583 5582 5582 5581 5580 5578 5575 5570 5566 5562 5559 5556 5554 5552 5551 5548 5547
5553 5552 5551 5550 5550 5550 5551 5552 5553 5554 5556 5557 5559 5560 5561 5562 5562 5563 5565 5566 5567 5567 5568 5569 5569 5570 5570 5570 5570 5568 5568 5566 5563 5562 5558 5555 5552 5548 5547 5547 5545 5542 5541
5544 5543 5541 5540 5540 5541 5541 5541 5542 5544 5546 5547 5548 5549 5549 5550 5550 5552 5554 5555 5555 5556 5556 5556 5555 5554 5554 5556 5558 5557 5557 5556 5555 5553 5551 5549 5545 5542 5542 5540 5539 5536 5534
5536 5535 5533 5532 5532 5531 5531 5532 5533 5534 5535 5537 5538 5538 5538 5537 5535 5538 5542 5544 5544 5545 5545 5545 5545 5544 5542 5542 5541 5542 5543 5545 5545 5544 5543 5539 5535 5534 5531 5531 5531 5531 5528
5529 5527 5526 5525 5524 5524 5524 5524 5524 5524 5526 5527 5527 5527 5526 5523 5524 5526 5529 5533 5533 5533 5534 5535 5536 5533 5535 5534 5531 5530 5530 5529 5528 5531 5531 5528 5526 5524 5522 5523 5520 5521 5519
5522 5521 5519 5518 5517 5516 5516 5516 5516 5516 5517 5517 5518 5517 5517 5513 5514 5516 5519 5523 5523 5522 5523 5524 5524 5524 5523 5524 5526 5525 5524 5521 5520 5521 5519 5517 5516 5513 5513 5513 5512 5513 5512
5517 5515 5514 5513 5512 5511 5510 5509 5510 5509 5509 5510 5510 5509 5509 5506 5505 5508 5511 5515 5514 5514 5514 5514 5515 5514 5510 5512 5517 5518 5516 5514 5510 5509 5507 5506 5504 5504 5503 5507 5510 5511 5510
5512 5510 5509 5508 5507 5506 5505 5504 5504 5504 5504 5504 5503 5502 5502 5500 5498 5501 5503 5511 5509 5510 5508 5507 5503 5503 5503 5504 5509 5510 5509 5508 5507 5506 5503 5501 5501 5500 5498 5499 5503 5504 5504
5509 5507 5505 5504 5503 5502 5501 5500 5500 5500 5499 5498 5497 5496 5495 5493 5493 5494 5496 5502 5505 5506 5506 5504 5499 5496 5496 5497 5498 5500 5498 5499 5502 5503 5503 5502 5501 5500 5499 5498 5497 5498 5499
5506 5504 5503 5502 5502 5500 5498 5497 5497 5497 5496 5495 5495 5494 5493 5490 5488 5488 5489 5491 5493 5498 5499 5498 5494 5491 5491 5491 5493 5492 5493 5494 5501 5501 5501 5500 5499 5499 5497 5496 5494 5493 5492
5505 5502 5501 5500 5499 5498 5497 5496 5496 5496 5498 5497 5497 5496 5494 5492 5488 5486 5486 5487 5488 5492 5491 5487 5487 5488 5488 5490 5488 5489 5492 5496 5497 5498 5497 5496 5496 5494 5494 5493 5493 5492 5492
5503 5501 5500 5499 5498 5497 5497 5498 5498 5498 5498 5498 5498 5496 5495 5493 5492 5491 5491 5491 5488 5490 5491 5488 5486 5487 5488 5487 5489 5491 5492 5492 5492 5493 5493 5494 5494 5494 5494 5493 5494 5494 5495
5503 5502 5501 5501 5499 5497 5496 5493 5494 5492 5492 5495 5496 5496 5496 5493 5485 5481 5484 5488 5488 5488 5489 5493 5494 5494 5494 5493 5493 5492 5491 5492 5491 5491 5491 5492 5492 5492 5492 5492 5490 5492 5493
5504 5504 5505 5504 5502 5501 5498 5494 5487 5489 5487 5487 5487 5488 5488 5485 5482 5482 5482 5482 5484 5485 5489 5495 5495 5495 5494 5494 5493 5493 5492 5491 5490 5490 5490 5490 5490 5490 5490 5491 5491 5491 5491
5507 5506 5507 5507 5506 5505 5503 5501 5497 5491 5488 5487 5487 5486 5486 5484 5484 5484 5484 5485 5486 5487 5494 5497 5496 5495 5494 5494 5493 5493 5492 5490 5487 5488 5489 5488 5488 5489 5489 5490 5490 5490 5491
5510 5507 5509 5509 5509 5508 5507 5507 5506 5504 5502 5499 5492 5489 5488 5488 5488 5488 5488 5488 5496 5496 5500 5499 5497 5496 5495 5494 5494 5493 5492 5491 5490 5489 5488 5488 5488 5488 5489 5489 5490 5488 5489
5514 5514 5513 5513 5513 5512 5511 5512 5511 5510 5509 5508 5506 5499 5494 5493 5492 5493 5493 5499 5504 5504 5503 5501 5500 5498 5497 5495 5494 5492 5491 5490 5489 5488 5488 5487 5488 5488 5488 5489 5490 5488 5487
5517 5512 5514 5517 5518 5517 5517 5517 5517 5516 5515 5514 5513 5511 5507 5506 5507 5505 5504 5505 5507 5506 5505 5504 5502 5500 5498 5497 5496 5495 5494 5492 5491 5490 5490 5488 5488 5488 5488 5488 5490 5490 5491
5524 5520 5515 5521 5523 5523 5523 5522 5521 5521 5521 5520 5518 5514 5507 5513 5514 5512 5512 5511 5510 5509 5507 5505 5504 5503 5501 5500 5499 5498 5495 5494 5493 5492 5491 5490 5489 5489 5489 5489 5490 5491 5491
5531 5530 5529 5529 5528 5527 5527 5526 5526 5526 5526 5525 5523 5520 5512 5515 5519 5518 5517 5515 5513 5511 5510 5508 5509 5507 5504 5503 5501 5499 5498 5497 5495 5493 5491 5491 5490 5490 5490 5490 5491 5491 5491
5536 5536 5535 5534 5533 5528 5530 5532 5532 5532 5531 5531 5530 5529 5526 5525 5524 5523 5521 5520 5517 5516 5514 5512 5510 5510 5508 5505 5502 5500 5500 5498 5496 5493 5491 5491 5491 5492 5491 5491 5490 5491 5491
5543 5542 5542 5540 5539 5539 5539 5538 5538 5538 5537 5536 5535 5534 5533 5531 5529 5528 5527 5525 5523 5521 5519 5518 5516 5514 5511 5508 5506 5505 5503 5499 5496 5494 5492 5491 5491 5492 5492 5492 5491 5492 5491
5549 5548 5548 5547 5546 5546 5545 5544 5544 5544 5543 5542 5541 5540 5540 5538 5537 5535 5534 5532 5530 5528 5526 5524 5522 5519 5517 5514 5512 5509 5506 5501 5498 5496 5493 5493 5493 5492 5492 5492 5492 5491 5491
5556 5555 5554 5554 5553 5552 5551 5550 5550 5549 5549 5549 5548 5547 5546 5545 5544 5542 5541 5539 5537 5535 5533 5531 5528 5526 5523 5520 5517 5514 5509 5506 5502 5499 5495 5494 5495 5495 5494 5493 5493 5492 5492